This information is not intended to be used as official crime data. This program does not provide information about all crimes, and excludes specific incidents such as sexual assaults and child abuse.

Disclaimer: The Jacksonville Sheriff's Office makes every effort to produce and publish current and accurate information. No warranties, expressed or implied, are provided for the data herein, its use, or its interpretation. The services provided are for informational purposes only and should not be relied on for any type of legal action.

Note: Calls in red are active.

Last refreshed 10/23 04:34:52

Incident # Dispatched Block Address Signal Call Description Comments
141023738352 10-23 04:04 700 N ARLINGTON RD 32S BURGLAR ALARM - SILENT
141023738348 10-23 03:59 13500 S SUTTON PARK DR 32 BURGLAR ALARM - AUDIBLE
141023738345 10-23 03:58 10600 MONACO DR 63 DISPUTE
141023738343 10-23 03:52 3200 FITZGERALD ST 21C BURGLARY CONVEYANCE
141023738338 10-23 03:51 900 YARDLEY CT 32 BURGLAR ALARM - AUDIBLE
141023738339 10-23 03:45 14000 BEACH BLVD 33 DISCHARGING OF FIREARM
141023738335 10-23 03:40 1000 N EDGEWOOD AVE 13 SUSPICIOUS PERSON
141023738334 10-23 03:40 1900 SPOONBILL ST 33 DISCHARGING OF FIREARM
141023738331 10-23 03:35 7000 MERRILL RD 32 BURGLAR ALARM - AUDIBLE
141023738324 10-23 03:29 E 4TH ST AND N MARKET ST 33 DISCHARGING OF FIREARM
141023738322 10-23 03:29 13800 N WINDSOR PARK DR 32 BURGLAR ALARM - AUDIBLE
141023738323 10-23 03:29 200 W 4TH ST 33 DISCHARGING OF FIREARM
141023738307 10-23 03:29 3900 SUNBEAM RD 13 SUSPICIOUS PERSON
141023738321 10-23 03:26 200 E 8TH ST 18 PERSON SHOT
141023738320 10-23 03:24 4600 DUSK CT 32 BURGLAR ALARM - AUDIBLE
141023738318 10-23 03:21 7100 N EUDINE DR 32 BURGLAR ALARM - AUDIBLE
141023738313 10-23 03:18 2800 UNIVERSITY BLVD 76 ASSIST OTHER AGENCY
141023738316 10-23 03:17 1600 RIVERVIEW DR 53 SOMEONE HURT
141023738295 10-23 03:16 3500 RIVERSIDE AVE 19 ANIMAL INVESTIGATION
141023738310 10-23 03:11 1600 RIVERSIDE AVE 5388 ASSAULT INVOLVING INJURY
141023738308 10-23 03:07 2700 TOWNSEND BLVD 32 BURGLAR ALARM - AUDIBLE
141023738303 10-23 03:04 4500 BARRINGTON OAKS DR 27 MENTALLY ILL PERSON
141023738305 10-23 03:03 8200 SOUTHSIDE BLVD 32X SILENT ALARM (ROBBERY PANIC OR AWARE)
141023738297 10-23 02:59 DORA ST AND MAGNOLIA ST 13 SUSPICIOUS PERSON
141023738292 10-23 02:57 W BEAVER ST AND CAHOON RD 80 PROSTITUTION (ONLY)
141023738296 10-23 02:50 7600 INDIAN LAKES DR 73 DRUG INVESTIGATION
141023738294 10-23 02:47 8200 PHILLIPS HWY 63 DISPUTE
141023738277 10-23 02:47 2000 RIVERSIDE AVE 64 NOISE COMPLAINT
141023738287 10-23 02:44 3500 E HERMITAGE RD 32 BURGLAR ALARM - AUDIBLE
141023738284 10-23 02:41 5500 RAMONA BLVD 76 ASSIST OTHER AGENCY
141023738282 10-23 02:40 5300 ARLINGTON EXPWY 33 DISCHARGING OF FIREARM
141023738281 10-23 02:39 5700 BOWDEN RD 32 BURGLAR ALARM - AUDIBLE
141023738274 10-23 02:38 10300 BRADLEY RD 2 63 DISPUTE INVOLVING ALCOHOL
141023738279 10-23 02:38 1100 CALIENTE DR 33 DISCHARGING OF FIREARM
141023738278 10-23 02:34 SOUTH SHORES RD AND ATLANTIC BLVD 64 NOISE COMPLAINT
141023738276 10-23 02:33 17900 WELLS RD 1066 CANCEL
141023738271 10-23 02:29 6100 TUSCONY CIR 32 BURGLAR ALARM - AUDIBLE
141023738270 10-23 02:29 11400 BEACH BLVD 13 SUSPICIOUS PERSON
141023738264 10-23 02:23 1700 SPIRES AVE 64 NOISE COMPLAINT
141023738260 10-23 02:22 W BEAVER ST AND S CHAFFEE RD 3 HIT AND RUN CRASH
141023738261 10-23 02:18 7700 MERRILL RD 21B BURGLARY BUSINESS
141023738259 10-23 02:16 7600 MERRILL RD 32 BURGLAR ALARM - AUDIBLE
141023738251 10-23 02:15 5500 N UNIVERSITY CLUB BLVD 1066 CANCEL
141023738255 10-23 02:15 1000 HAINES ST 32 BURGLAR ALARM - AUDIBLE
141023738248 10-23 02:01 3600 PHILLIPS HWY 32 BURGLAR ALARM - AUDIBLE
141023738245 10-23 02:00 200 W UNION ST 63 DISPUTE
141023738243 10-23 01:55 SOUTHSIDE BLVD AND BAYMEADOWS RD 16 ROAD OBSTRUCTION
141023738240 10-23 01:52 BAYMEADOWS RD AND PHILLIPS HWY 3 HIT AND RUN CRASH
141023738237 10-23 01:48 6200 FT CAROLINE RD 21B BURGLARY BUSINESS
141023738234 10-23 01:48 500 E ADAMS ST 88 ASSAULT
141023738228 10-23 01:40 3200 SOUTHSIDE BLVD 64 NOISE COMPLAINT
141023738210 10-23 01:39 1200 W 23RD ST 2 63 DISPUTE INVOLVING ALCOHOL
141023738180 10-23 01:38 3000 SOUTHSIDE BLVD 11 ABANDONED VEHICLE
141023738221 10-23 01:35 ATLANTIC BLVD AND SOUTHSIDE BLVD 12 RECKLESS DRIVER
141023738217 10-23 01:33 S I295 EXPWY AND ATLANTIC BLVD 32 BURGLAR ALARM - AUDIBLE
141023738216 10-23 01:33 14200 BEACH BLVD 32 BURGLAR ALARM - AUDIBLE
141023738194 10-23 01:28 600 N ELLIS RD 32 BURGLAR ALARM - AUDIBLE
141023738207 10-23 01:25 5900 ARLINGTON EXPWY 13 SUSPICIOUS PERSON
141023738213 10-23 01:25 900 KING ST 63 DISPUTE
141023738203 10-23 01:18 4200 WALNUT BEND 32 BURGLAR ALARM - AUDIBLE
141023738206 10-23 01:16 11900 BEACH BLVD 13 SUSPICIOUS PERSON
141023738202 10-23 01:14 8200 ARLINGTON EXPWY 32 BURGLAR ALARM - AUDIBLE
141023738199 10-23 01:12 4200 S UNIVERSITY BLVD 76 ASSIST OTHER AGENCY
141023738200 10-23 01:12 4200 S UNIVERSITY BLVD 32 BURGLAR ALARM - AUDIBLE
141023738198 10-23 01:11 3000 W EDGEWOOD AVE 21BP BURGLARY BUSINESS IN PROGRESS
141023738196 10-23 01:09 2900 SPRING PARK RD 22 DOMESTIC DISTURBANCE
141023738187 10-23 01:05 500 W ADAMS ST 49 REPORT TO HOSPITAL
141023738185 10-23 01:04 700 N HALSEMA RD 20 PROWLER/PEEPING TOM
141023738193 10-23 01:04 10500 DE PAUL DR 63 DISPUTE
141023738191 10-23 01:02 5500 CLIFF ST 1066 CANCEL
141023738184 10-23 00:54 600 W UNION ST 63 DISPUTE
141023738172 10-23 00:44 N I95 EXPWY AND OLD ST AUGUSTINE RD 96 ASSIST MOTORIST
141023738163 10-23 00:44 10200 BISTRO DR 32 BURGLAR ALARM - AUDIBLE
141023738171 10-23 00:40 700 MELSON AVE 13 SUSPICIOUS PERSON
141023738157 10-23 00:34 5300 RIO GRANDE AVE 6388 DISPUTE WITH ASSAULT
141023738155 10-23 00:31 7400 LINDA DR 64 NOISE COMPLAINT
141023738149 10-23 00:26 1300 DUNN AVE 32 BURGLAR ALARM - AUDIBLE
141023738146 10-23 00:20 800 RIVERSIDE AVE 32 BURGLAR ALARM - AUDIBLE
141022738121 10-23 00:20 4700 BEVERLY CIR 63 DISPUTE
141023738143 10-23 00:18 2600 DELLWOOD AVE 9 THEFT
141023738137 10-23 00:12 8700 NEWTON RD 64 NOISE COMPLAINT
141022738111 10-23 00:12 6900 MORSE AVE 64 NOISE COMPLAINT
141023738139 10-23 00:10 1500 E PLEASANT PARK DR 60 SUICIDE OR ATTEMPT
141023738128 10-23 00:06 3200 HODGES BLVD 1066 CANCEL
141023738131 10-23 00:05 8000 ARLINGTON EXPWY 60 SUICIDE OR ATTEMPT
141023738127 10-23 00:04 1500 RIVERPLACE BLVD 32 BURGLAR ALARM - AUDIBLE
141022738116 10-23 00:01 2100 WILEY OAKS LN 20 PROWLER/PEEPING TOM
141023738123 10-23 00:00 W CHURCH ST AND N JULIA ST 13 SUSPICIOUS PERSON
141023738122 10-23 00:00 3700 HARTSFIELD FOREST CIR 54 ILLEGALLY PARKED CAR
141022738120 10-22 23:59 4100 HANGING MOSS CT 3 HIT AND RUN CRASH
141022738075 10-22 23:55 8700 NEWTON RD 64 NOISE COMPLAINT
141022738104 10-22 23:54 S I295 EXPWY AND BAYMEADOWS RD 4 AUTO CRASH
141022738106 10-22 23:50 3500 N PEARL ST 2288 DOMESTIC DISPUTE WITH/ASSAULT
141022738093 10-22 23:49 1900 N MAIN ST 32 BURGLAR ALARM - AUDIBLE
141022738103 10-22 23:48 6000 NORA RD 21C BURGLARY CONVEYANCE
141022738100 10-22 23:45 12200 ATLANTIC BLVD 96 ASSIST MOTORIST
141022738095 10-22 23:41 6300 CHERRY LAUREL DR 63 DISPUTE
141022738091 10-22 23:40 2500 PADDOCK DR 60 SUICIDE OR ATTEMPT
141022738079 10-22 23:36 3400 STANLEY ST 63 DISPUTE
141022738087 10-22 23:35 1800 RIBAULT SCENIC DR 13 SUSPICIOUS PERSON
141022738017 10-22 23:31 300 LAURINA ST 63 DISPUTE
141022738070 10-22 23:24 1000 HUBBARD ST 32 BURGLAR ALARM - AUDIBLE
141022738054 10-22 23:23 8000 ATLANTIC BLVD 1066 CANCEL
141022738064 10-22 23:21 2600 BYWOOD RD 63 DISPUTE
141022738049 10-22 23:18 1700 SPIRES AVE 64 NOISE COMPLAINT
141022738059 10-22 23:18 2500 COMMUNITY RD 63 DISPUTE
141022738034 10-22 23:17 13900 ASCOT DR 13 SUSPICIOUS PERSON
141022738030 10-22 23:16 3900 SOUTHSIDE BLVD 9J THEFT JUST OCCURRED
141022738048 10-22 23:12 1700 BLANDING BLVD 57 PERSON CALLING FOR HELP
141022738037 10-22 23:06 LONE STAR RD AND MILL CREEK RD 13 SUSPICIOUS PERSON
141022738009 10-22 23:04 BEACH BLVD AND PARENTAL HOME RD 12 RECKLESS DRIVER
141022738026 10-22 23:03 1700 N CARBONDALE DR 21R BURGLARY RESIDENCE
141022738031 10-22 23:01 6900 PERRY ST 32 BURGLAR ALARM - AUDIBLE
141022738029 10-22 23:01 5500 BENNINGTON DR 63 DISPUTE
141022738028 10-22 23:00 12800 WARRINGTON OAKS RD 8 27 MISSING MENTALLY ILL
141022738008 10-22 22:53 6200 NORSE DR 21R BURGLARY RESIDENCE
141022738002 10-22 22:50 400 NAUGATUCK DR 16 ROAD OBSTRUCTION
141022737993 10-22 22:48 ATLANTIC BLVD AND CENTURY 21 DR 9 THEFT
141022737976 10-22 22:48 3400 SALAND WAY 63 DISPUTE
141022737991 10-22 22:47 W 6TH ST AND TYLER ST 21CJ BURGLARY CONVEYANCE JUST OCCURRED
141022737964 10-22 22:47 6000 103RD ST 63 DISPUTE
141022737992 10-22 22:45 SPRING GLEN RD AND KENNERLY RD 13 SUSPICIOUS PERSON
141022737988 10-22 22:41 8000 ATLANTIC BLVD 2 DRUNK PERSON
141022737985 10-22 22:40 ARLINGTON EXPWY AND UNIVERSITY BLVD 16 ROAD OBSTRUCTION
141022737975 10-22 22:38 1300 LACLEDE AVE 63 DISPUTE
141022737984 10-22 22:38 1800 W 23RD ST 22 DOMESTIC DISTURBANCE
141022737946 10-22 22:38 7000 WILEY RD 63 DISPUTE
141022737979 10-22 22:37 4700 LAMBING RD 21R BURGLARY RESIDENCE
141022737970 10-22 22:36 10200 SANDLER RD 63 DISPUTE
141022737885 10-22 22:36 1200 E 8TH ST 3 HIT AND RUN CRASH
141022737977 10-22 22:36 2900 SPENCER ST 63 DISPUTE
141022737966 10-22 22:36 11100 LAUREN OAK LN 37 UNVERIFIED 911 CALL
141022737974 10-22 22:34 4200 ANSON DR 64 NOISE COMPLAINT
141022737969 10-22 22:33 2200 MAYPORT RD 13 SUSPICIOUS PERSON
141022737959 10-22 22:31 ROOSEVELT BLVD AND VERONA AVE 33 DISCHARGING OF FIREARM
141022737967 10-22 22:31 N I95 EXPWY AND SAN MARCO BLVD 12 RECKLESS DRIVER
141022737965 10-22 22:28 4200 W MONCRIEF RD 63 DISPUTE
141022737956 10-22 22:27 1100 WOODRUFF AVE 9 THEFT
141022737961 10-22 22:27 ST JOHNS AVE AND ROOSEVELT BLVD 12 RECKLESS DRIVER
141022737962 10-22 22:26 400 W 49TH ST 13 SUSPICIOUS PERSON
141022737930 10-22 22:26 7100 WILSON BLVD 2 63 DISPUTE INVOLVING ALCOHOL
141022737963 10-22 22:26 11200 HARTLAND RD 32 BURGLAR ALARM - AUDIBLE
141022737954 10-22 22:24 6500 NORMANDY BLVD 12 RECKLESS DRIVER
141022737943 10-22 22:24 1500 MONUMENT RD 13 SUSPICIOUS PERSON
141022737957 10-22 22:23 8500 BRAZIL RD 76 ASSIST OTHER AGENCY
141022737952 10-22 22:21 8500 BRAZIL RD 1066 CANCEL
141022737909 10-22 22:18 4500 W MELISSA CT 95ID IDENTITY THEFT
141022737907 10-22 22:17 1100 GOLFAIR BLVD 32 BURGLAR ALARM - AUDIBLE
141022737941 10-22 22:12 500 GOLFAIR BLVD 2 22 DOMESTIC DISTURBANCE
141022737887 10-22 22:12 4100 CROWNWOOD DR 79 OBSCENE OR THREATENING COMM
141022737881 10-22 22:12 2900 BEACHWOOD BLVD 8 MISSING PERSON
141022737939 10-22 22:12 BEACH BLVD AND CORTEZ RD 1 IMPAIRED/RECKLESS DRIVER
141022737922 10-22 22:11 1800 S KERNAN BLVD 63 DISPUTE
141022737940 10-22 22:11 2600 N MYRTLE AVE 0 13 ARMED SUSPICIOUS PERSON
141022737935 10-22 22:09 6900 JACK HORNER LN 33 DISCHARGING OF FIREARM
141022737933 10-22 22:09 6900 WILEY RD 33 DISCHARGING OF FIREARM
141022737931 10-22 22:07 8500 BAYMEADOWS WAY 37 UNVERIFIED 911 CALL
141022737903 10-22 22:06 NEW KINGS RD AND REDPOLL AVE 73 DRUG INVESTIGATION
141022737928 10-22 22:05 3700 PARK ST 1066 CANCEL
141022737867 10-22 22:05 3500 KORI RD 64 NOISE COMPLAINT
141022737927 10-22 22:04 4200 OLDFIELD CROSSING DR 60 SUICIDE OR ATTEMPT
141022737892 10-22 22:03 6700 N BRANDEMERE RD 63 DISPUTE
141022737916 10-22 22:00 E 5TH ST AND EVERGREEN AVE 1066 CANCEL
141022737906 10-22 22:00 7100 CONANT AVE 64 NOISE COMPLAINT
141022737914 10-22 22:00 PRITCHARD RD AND SPORTSMAN CLUB RD 13 SUSPICIOUS PERSON
141022737923 10-22 21:59 11700 PALM LAKE DR 33 DISCHARGING OF FIREARM
141022737920 10-22 21:59 HERSCHEL ST AND ST JOHNS AVE 61 FIGHT
141022737917 10-22 21:58 100 N PEARL ST 60 SUICIDE OR ATTEMPT
141022737915 10-22 21:57 ATLANTIC BLVD AND S ST JOHNS BLUFF RD 4 53 TRAFFIC CRASH PERSON INJURED
141022737911 10-22 21:57 600 W 8TH ST 18 PERSON SHOT
141022737910 10-22 21:56 2900 SPRING PARK RD 2288 DOMESTIC DISPUTE WITH/ASSAULT
141022737795 10-22 21:53 4500 ST AUGUSTINE RD 86T LOST PROPERTY (TELESERVE)
141022737855 10-22 21:53 4200 BELFORT RD 9 THEFT
141022737898 10-22 21:50 400 W CHURCH ST 63 DISPUTE
141022737900 10-22 21:49 W 8TH ST AND N MYRTLE AVE 18 PERSON SHOT
141022737896 10-22 21:49 2300 ARDMORE CT 63 DISPUTE
141022737897 10-22 21:49 1900 ORLEAN DR 14R VANDALISM RESIDENCE
141022737893 10-22 21:48 5700 TAMPICO RD 32 BURGLAR ALARM - AUDIBLE
141022737871 10-22 21:46 4400 RAINER RD 2288 DOMESTIC DISPUTE WITH/ASSAULT
141022737890 10-22 21:45 1300 CAMPBELL AVE 13 SUSPICIOUS PERSON
141022737812 10-22 21:45 5600 ORTEGA PARK BLVD 63 DISPUTE
141022737850 10-22 21:45 8200 HEDGEWOOD DR 90 FIREWORKS
141022737886 10-22 21:44 8300 FREEDOM CROSSING TRL 63 DISPUTE
141022737883 10-22 21:42 2100 BENEDICT RD 8 MISSING PERSON
141022737876 10-22 21:42 PLYMOUTH ST AND S EDGEWOOD AVE 13 SUSPICIOUS PERSON
141022737880 10-22 21:41 6800 NORMANDY BLVD 23IJ ROBBERY INDIVIDUAL JUST OCCD
141022737870 10-22 21:40 7800 STUART AVE 22 DOMESTIC DISTURBANCE
141022737873 10-22 21:39 2500 SPIREA ST 22 DOMESTIC DISTURBANCE
141022737866 10-22 21:39 5700 LENOX AVE 64 NOISE COMPLAINT
141022737823 10-22 21:32 4100 TROUT RIVER BLVD 21R BURGLARY RESIDENCE
141022737863 10-22 21:32 100 W 8TH ST 37 UNVERIFIED 911 CALL
141022737860 10-22 21:32 7000 MERRILL RD 63 DISPUTE
141022737858 10-22 21:31 N I95 EXPWY AND DUNN AVE 9 THEFT
141022737778 10-22 21:24 900 REVELS RD 27 MENTALLY ILL PERSON
141022737849 10-22 21:23 5600 MARATHON PKWY 8 MISSING PERSON
141022737769 10-22 21:22 13900 S SHIPWRECK CIR 27 MENTALLY ILL PERSON
141022737837 10-22 21:22 2500 N MAIN ST 63 DISPUTE
141022737846 10-22 21:21 1900 W 12TH ST 64 NOISE COMPLAINT
141022737831 10-22 21:21 5900 FT CAROLINE RD 2 DRUNK PERSON
141022737845 10-22 21:20 4300 SPRINGFIELD BLVD 64 NOISE COMPLAINT
141022737835 10-22 21:19 3800 W COPPER CIR 54 ILLEGALLY PARKED CAR
141022737844 10-22 21:19 S UNIVERSITY BLVD AND HARVIN RD 4 AUTO CRASH
141022737800 10-22 21:17 6000 YOUNGERMAN CIR 63 DISPUTE
141022737825 10-22 21:13 5600 EDENFIELD RD 63 DISPUTE
141022737830 10-22 21:11 600 W 18TH ST 22 DOMESTIC DISTURBANCE
141022737777 10-22 21:11 6200 RICKER RD 27 MENTALLY ILL PERSON
141022737829 10-22 21:11 W I10 EXPWY AND S LANE AVE 13 SUSPICIOUS PERSON
141022737827 10-22 21:08 10400 CENTERWOOD CT 32X SILENT ALARM (ROBBERY PANIC OR AWARE)
141022737746 10-22 21:07 11800 ALDEN RD 64 NOISE COMPLAINT
141022737791 10-22 21:06 10300 ATLANTIC BLVD 63 DISPUTE
141022737804 10-22 21:05 1600 W 45TH ST 37 UNVERIFIED 911 CALL
141022737811 10-22 21:05 W I10 EXPWY AND S LANE AVE 16 ROAD OBSTRUCTION
141022737819 10-22 21:03 10900 SAN JOSE BLVD 13 SUSPICIOUS PERSON
141022737818 10-22 21:02 8500 BAYMEADOWS WAY 37 UNVERIFIED 911 CALL
141022737785 10-22 20:59 LENOX AVE AND FOURAKER RD 4 AUTO CRASH
141022737808 10-22 20:56 4500 N MAIN ST 88 ASSAULT
141022737772 10-22 20:56 7700 FALCON ST 13 SUSPICIOUS PERSON
141022737757 10-22 20:56 500 S CHAFFEE RD 1066 CANCEL
141022737805 10-22 20:55 1700 LAKE SHORE BLVD 20 PROWLER/PEEPING TOM
141022737760 10-22 20:53 2600 BONAVENTURE AVE 2288 DOMESTIC DISPUTE WITH/ASSAULT
141022737719 10-22 20:53 5000 BIG ISLAND DR 21R BURGLARY RESIDENCE
141022737796 10-22 20:52 1300 MORVENWOOD RD 64 NOISE COMPLAINT
141022737797 10-22 20:51 HARTXEXIT E ATL RP AND ART MUSEUM DR 12 RECKLESS DRIVER
141022737798 10-22 20:51 S I95 EXPWY AND AIRPORT RD 4 AUTO CRASH
141022737681 10-22 20:48 3500 W BOWDEN CIR 63 DISPUTE
141022737735 10-22 20:46 N CELERY AVE AND WILLIAMS AVE 50 FOUND/ABANDONED PROPERTY
141022737779 10-22 20:43 FRENCH ST AND WOODRUFF AVE 13 SUSPICIOUS PERSON
141022737739 10-22 20:43 GREEK RD AND LINDSEY RD 21CJ BURGLARY CONVEYANCE JUST OCCURRED
141022737788 10-22 20:42 1200 GUM LEAF RD 2 22 DOMESTIC DISTURBANCE
141022737787 10-22 20:42 11900 LEM TURNER RD 63 DISPUTE
141022737771 10-22 20:42 3300 NOLAN ST 64 NOISE COMPLAINT
141022737755 10-22 20:41 8200 PEAR RD 95 FRAUD/FORGED PRESCRIPTION
141022737783 10-22 20:40 PHILLIPS HWY AND ALPHONS ST 4 53 TRAFFIC CRASH PERSON INJURED
141022737781 10-22 20:40 8000 ATLANTIC BLVD 63 DISPUTE
141022737722 10-22 20:37 7800 POINT MEADOWS DR 21RT BURGLARY RESIDENCE TELELSERVE
141022737766 10-22 20:36 6500 LAKE GRAY BLVD 13 SUSPICIOUS PERSON
141022737737 10-22 20:36 12300 FT CAROLINE RD 22 DOMESTIC DISTURBANCE
141022737733 10-22 20:35 2000 CAPISTRANO DR 21C BURGLARY CONVEYANCE
141022737753 10-22 20:35 3800 RODBY DR 13 SUSPICIOUS PERSON
141022737767 10-22 20:34 1000 W ODESSA DR 22 DOMESTIC DISTURBANCE
141022737762 10-22 20:34 S I95 EXPWY AND OLD ST AUGUSTINE RD 4 AUTO CRASH
141022737745 10-22 20:31 4300 PILGRIM WAY 63 DISPUTE
141022737693 10-22 20:30 5900 PATTERSON AVE 21R BURGLARY RESIDENCE
141022737747 10-22 20:30 SUNBEAM RD AND S OLD KINGS RD 63 DISPUTE
141022737742 10-22 20:27 3000 MONCRIEF RD 63 DISPUTE
141022737723 10-22 20:26 4300 SOUTHSIDE BLVD 1066 CANCEL
141022737731 10-22 20:26 4600 TOWN CROSSING DR 32 BURGLAR ALARM - AUDIBLE
141022737632 10-22 20:24 8700 HAMMOND FOREST DR 63 DISPUTE
141022737688 10-22 20:23 2400 PACIFIC SILVER DR 21R BURGLARY RESIDENCE
141022737729 10-22 20:22 6000 MAGGIES CIR 63 DISPUTE
141022737727 10-22 20:22 S I295 EXPWY AND PRITCHARD RD 12 RECKLESS DRIVER
141022737726 10-22 20:21 TOLEDO RD AND POWERS AVE 98 THROWING MISSILES
141022737710 10-22 20:19 N I295 EXPWY AND J TURNER BUTLER BLVD 16 ROAD OBSTRUCTION
141022737721 10-22 20:19 2500 W 5TH ST 1066 CANCEL
141022737713 10-22 20:18 12300 FT CAROLINE RD 1066 CANCEL
141022737704 10-22 20:16 JIMTOM DR AND SCHIRRA DR 16 ROAD OBSTRUCTION
141022737636 10-22 20:16 1000 S US 301 HWY 4 AUTO CRASH
141022737687 10-22 20:15 7900 NORMANDY BLVD 56 JUVENILE COMPLAINT
141022737718 10-22 20:14 800 N PEARL ST 13 SUSPICIOUS PERSON
141022737711 10-22 20:13 10900 BEACH BLVD 76 ASSIST OTHER AGENCY
141022737697 10-22 20:13 4500 ST JOHNS AVE 1066 CANCEL
141022737709 10-22 20:12 10200 RIVER COAST DR 76 ASSIST OTHER AGENCY
141022737707 10-22 20:12 7900 LOCH NESS CT 5388 ASSAULT INVOLVING INJURY
141022737708 10-22 20:11 600 MONUMENT RD 21R BURGLARY RESIDENCE
141022737678 10-22 20:10 900 W ADAMS ST 63 DISPUTE
141022737703 10-22 20:10 4100 PHILLIPS HWY 76 ASSIST OTHER AGENCY
141022737700 10-22 20:09 300 SILVER CREEK TRCE 32 BURGLAR ALARM - AUDIBLE
141022737696 10-22 20:09 POWERS AVE AND S OLD KINGS RD 1 IMPAIRED/RECKLESS DRIVER
141022737658 10-22 20:08 W I10 EXPWY AND S US 301 HWY 52 ILLEGAL DUMPING
141022737694 10-22 20:08 SIBBALD RD AND SOUTEL DR 61 FIGHT
141022737673 10-22 20:06 3700 EUNICE RD 95ID IDENTITY THEFT
141022737690 10-22 20:05 5700 HOEY TER 63 DISPUTE
141022737692 10-22 20:04 1400 CEDAR ST 13 SUSPICIOUS PERSON
141022737691 10-22 20:04 9000 MERRILL RD 63 DISPUTE
141022737614 10-22 20:03 2200 PERRY PL 63 DISPUTE
141022737686 10-22 20:02 SOUTEL DR AND CASTLE BLVD 63 DISPUTE
141022737679 10-22 20:02 2900 W PARR CT 13 SUSPICIOUS PERSON
141022737668 10-22 20:00 1000 BERT RD 63 DISPUTE
141022737650 10-22 19:59 5100 SHENANDOAH AVE 22 DOMESTIC DISTURBANCE
141022737585 10-22 19:59 13500 VALBUENA CT 21C BURGLARY CONVEYANCE
141022737640 10-22 19:59 5200 NORMANDY BLVD 63 DISPUTE
141022737680 10-22 19:58 BEACH BLVD AND LAMEE AVE 63 DISPUTE
141022737672 10-22 19:56 1900 S ALLANDALE CIR 63 DISPUTE
141022737639 10-22 19:55 6200 MERRILL RD 63 DISPUTE
141022737606 10-22 19:54 13800 OLD ST AUGUSTINE RD 27 MENTALLY ILL PERSON
141022737431 10-22 19:54 10700 S KUSAIE DR 63 DISPUTE
141022737664 10-22 19:54 EMERSON ST AND HENDRICKS AVE 16 ROAD OBSTRUCTION
141022737627 10-22 19:54 8700 NEWTON RD 63 DISPUTE
141022737671 10-22 19:53 BAYMEADOWS RD AND N I295 EXPWY 4 53 TRAFFIC CRASH PERSON INJURED
141022737532 10-22 19:52 5300 TIMUQUANA RD 4 AUTO CRASH
141022737649 10-22 19:51 6700 PATANIA WAY 8 MISSING PERSON
141022737659 10-22 19:49 8400 SAN ARDO DR 13 SUSPICIOUS PERSON
141022737657 10-22 19:48 N I95 EXPWY AND MARTIN LUTHER KING JR PKWY 27 MENTALLY ILL PERSON
141022737586 10-22 19:47 9000 LEICESTERSHIRE CT 28 DELIVER MESSAGE
141022737582 10-22 19:47 3800 E UNION PACIFIC DR 27 MENTALLY ILL PERSON
141022737634 10-22 19:47 8500 E STURBRIDGE CIR 37 UNVERIFIED 911 CALL
141022737655 10-22 19:47 N I95 EXPWY AND W 8TH ST 16 ROAD OBSTRUCTION
141022737601 10-22 19:45 7000 JULIET LN 10 AUTO THEFT
141022737564 10-22 19:45 6700 103RD ST 21R BURGLARY RESIDENCE
141022737637 10-22 19:44 3300 COMMONWEALTH AVE 9 THEFT
141022737645 10-22 19:43 100 W 4TH ST 64 NOISE COMPLAINT
141022737635 10-22 19:39 600 E ADAMS ST 76 ASSIST OTHER AGENCY
141022737608 10-22 19:39 8500 LENOX AVE 50 FOUND/ABANDONED PROPERTY
141022737631 10-22 19:39 1800 S KERNAN BLVD 88 ASSAULT
141022737612 10-22 19:38 11200 SAN JOSE BLVD 4 AUTO CRASH
141022737622 10-22 19:36 1200 BROOKWOOD FOREST BLVD 32 BURGLAR ALARM - AUDIBLE
141022737613 10-22 19:36 4000 SOUTHSIDE BLVD 13 SUSPICIOUS PERSON
141022737626 10-22 19:36 4500 S LANE AVE 60 SUICIDE OR ATTEMPT
141022737619 10-22 19:34 1900 RIBAULT SCENIC DR 32 BURGLAR ALARM - AUDIBLE
141022737620 10-22 19:34 11000 HARTS RD 63 DISPUTE
141022737580 10-22 19:34 1500 S LANE AVE 22 DOMESTIC DISTURBANCE
141022737617 10-22 19:33 W I10 EXPWY AND S I95 EXPWY 12 RECKLESS DRIVER
141022737618 10-22 19:33 12600 DEEDER LN 76 ASSIST OTHER AGENCY
141022737521 10-22 19:32 4800 PAYNE STEWART DR 95IDT IDENTITY THEFT TELESERVE
141022737598 10-22 19:31 2400 RIDGEWOOD RD 37 UNVERIFIED 911 CALL
141022737597 10-22 19:30 3900 S UNIVERSITY BLVD 32 BURGLAR ALARM - AUDIBLE
141022737590 10-22 19:30 3900 PITTMAN DR 32 BURGLAR ALARM - AUDIBLE
141022737551 10-22 19:29 1800 S KERNAN BLVD 76 ASSIST OTHER AGENCY
141022737560 10-22 19:29 2900 STONEMONT ST 80 PROSTITUTION (ONLY)
141022737609 10-22 19:29 8000 ATLANTIC BLVD 6388 DISPUTE WITH ASSAULT
141022737603 10-22 19:26 10900 LEM TURNER RD 63 DISPUTE
141022737595 10-22 19:26 5600 TIMUQUANA RD 0 23BJ ARMED ROBBERY BUSINESS JUST OCCURRED
141022737588 10-22 19:26 700 E 57TH ST 22 DOMESTIC DISTURBANCE
141022737602 10-22 19:25 9400 PHILLIPS HWY 37 UNVERIFIED 911 CALL
141022737578 10-22 19:25 100 N HOGAN ST 63 DISPUTE
141022737575 10-22 19:24 5900 S WENTWORTH CIR 9 THEFT
141022737596 10-22 19:23 5600 TIMUQUANA RD 0 23BP ARMED ROBBERY BUSINESS IN PROGRESS
141022737482 10-22 19:23 5400 OLD COLONY DR 88 ASSAULT
141022737593 10-22 19:22 600 W 8TH ST 27 MENTALLY ILL PERSON
141022737559 10-22 19:21 4800 SCOTCH PINE CT 4 AUTO CRASH
141022737589 10-22 19:21 100 N DAMES POINT BRG 16 ROAD OBSTRUCTION
141022737584 10-22 19:20 7600 N MELISSA CT 32 BURGLAR ALARM - AUDIBLE
141022737579 10-22 19:19 3800 S ARROW LAKES DR 2 63 DISPUTE INVOLVING ALCOHOL
141022737577 10-22 19:18 5900 BEACH BLVD 3 HIT AND RUN CRASH
141022737576 10-22 19:16 1500 W 15TH ST 19 ANIMAL INVESTIGATION
141022737499 10-22 19:16 7800 E RONDEAU DR 2288 DOMESTIC DISPUTE WITH/ASSAULT
141022737556 10-22 19:15 3500 KORI RD 64 NOISE COMPLAINT
141022737573 10-22 19:15 1800 N LIBERTY ST 73 DRUG INVESTIGATION
141022737543 10-22 19:15 9300 JOLORU DR 76 ASSIST OTHER AGENCY
141022737554 10-22 19:13 10200 WHISPERING FOREST DR 13 SUSPICIOUS PERSON
141022737508 10-22 19:13 3300 HENDRICKS AVE 13 SUSPICIOUS PERSON
141022737568 10-22 19:12 5300 BURDETTE RD 2 22 DOMESTIC DISTURBANCE
141022737562 10-22 19:11 13300 BEACH BLVD 76 ASSIST OTHER AGENCY
141022737444 10-22 19:11 3400 E ALDRIDGE RD 19 ANIMAL INVESTIGATION
141022737549 10-22 19:09 1200 EASTER ST 0 63 ARMED DISPUTE
141022737442 10-22 19:09 11000 STUTZ CT 76 ASSIST OTHER AGENCY
141022737561 10-22 19:09 100 W MONROE ST 63 DISPUTE
141022737522 10-22 19:08 10700 BEACH BLVD 63 DISPUTE
141022737531 10-22 19:08 14400 MARINA SAN PABLO PL 12 RECKLESS DRIVER
141022737513 10-22 19:08 N I295 EXPWY AND BEACH BLVD 12 RECKLESS DRIVER
141022737539 10-22 19:08 5700 S ENGLISH OAK DR 8 MISSING PERSON
141022737512 10-22 19:07 BEACH BLVD AND FOREST BLVD 12 RECKLESS DRIVER
141022737558 10-22 19:07 5900 S MAPLE LEAF DR 76 ASSIST OTHER AGENCY
141022737553 10-22 19:05 PHILLIPS HWY AND PUTNAM AVE 0 88P ARMED ASSAULT IN PROGRESS
141022737496 10-22 19:04 2200 MAYPORT RD 2 63 DISPUTE INVOLVING ALCOHOL
141022737506 10-22 19:04 10200 SHOPS LN 5582 HOLDING ONE FOR SHOPLIFTING
141022737550 10-22 19:02 100 N BUCKMAN BRG 16 ROAD OBSTRUCTION
141022737535 10-22 19:02 7100 N MAIN ST 32 BURGLAR ALARM - AUDIBLE
141022737519 10-22 19:02 9200 DANVILLE AVE 56 JUVENILE COMPLAINT
141022737462 10-22 19:01 14500 OLD ST AUGUSTINE RD 9T THEFT (TELESERVE)
141022737548 10-22 19:01 E UNION ST AND N MARKET ST 13 SUSPICIOUS PERSON
141022737447 10-22 19:01 9400 SILHOUETTE LN 21R BURGLARY RESIDENCE
141022737520 10-22 19:01 3700 HEATH RD 68T CON GAME/FLIM FLAM TELESERVE
141022737479 10-22 19:01 800 N EDGEWOOD AVE 64 NOISE COMPLAINT
141022737538 10-22 19:00 DUNN AVE AND BUSCH DR 38 TRAFFIC ASSIGNMENT
141022737540 10-22 18:59 500 SKYMARKS DR 4 AUTO CRASH
141022737517 10-22 18:59 2800 SYDNEY ST 63 DISPUTE
141022737452 10-22 18:58 10800 KURALEI DR 63 DISPUTE
141022737441 10-22 18:57 3000 WEDGEFIELD BLVD 9 THEFT
141022737468 10-22 18:57 6500 ARGYLE FOREST BLVD 21C BURGLARY CONVEYANCE
141022737526 10-22 18:57 500 ACME ST 63 DISPUTE
141022737432 10-22 18:57 100 E 29TH ST 88 ASSAULT
141022737516 10-22 18:56 W 23RD ST AND STUART ST 12 RECKLESS DRIVER
141022737502 10-22 18:56 12300 KERNAN FOREST BLVD 22 DOMESTIC DISTURBANCE
141022737440 10-22 18:56 ATLANTIC BLVD AND S KERNAN BLVD 3 HIT AND RUN CRASH
141022737465 10-22 18:56 8800 SHELL ISLAND DR 4 AUTO CRASH
141022737492 10-22 18:55 2400 BARNETT ST 9 THEFT
141022737429 10-22 18:55 3000 LEON RD 2 63 DISPUTE INVOLVING ALCOHOL
141022737480 10-22 18:54 2200 ARLAND RD 32 BURGLAR ALARM - AUDIBLE
141022737391 10-22 18:54 14000 BEACH BLVD 90 FIREWORKS
141022737430 10-22 18:53 2400 JAMMES RD 21CT BURGLARY CONVEYANCE TELESERVE
141022737445 10-22 18:53 6800 103RD ST 63 DISPUTE
141022737497 10-22 18:52 9300 103RD ST 63 DISPUTE
141022737500 10-22 18:51 9500 PLUMMER RD 1066 CANCEL
141022737436 10-22 18:49 9500 PHILLIPS HWY 4 AUTO CRASH
141022737507 10-22 18:48 6400 ARGYLE FOREST BLVD 63 DISPUTE
141022737510 10-22 18:44 3000 ROSSELLE ST 88J ASSAULT JUST OCCURRED
141022737398 10-22 18:42 11300 N FT CAROLINE LAKES DR 19 ANIMAL INVESTIGATION
141022737486 10-22 18:42 2700 GREEN ST 27 MENTALLY ILL PERSON
141022737503 10-22 18:42 1900 BUCKNELL AVE 21R BURGLARY RESIDENCE
141022737501 10-22 18:41 8600 E DEERMOSS WAY 60 SUICIDE OR ATTEMPT
141022737248 10-22 18:39 9300 MIDDLEBURY GLEN CT 32 BURGLAR ALARM - AUDIBLE
141022737498 10-22 18:39 13900 VILLAGE LAKE CIR 76 ASSIST OTHER AGENCY
141022737446 10-22 18:38 6300 COLLINS RD 63 DISPUTE
141022737464 10-22 18:38 6700 ECTOR RD 63 DISPUTE
141022737315 10-22 18:37 9700 S WATERSHED DR 9 THEFT
141022737385 10-22 18:37 3100 PLUMTREE DR 63 DISPUTE
141022737378 10-22 18:36 6100 ARLINGTON EXPWY 2 63 DISPUTE INVOLVING ALCOHOL
141022737457 10-22 18:36 SOUTHSIDE BLVD AND ATLANTIC BLVD 16 ROAD OBSTRUCTION
141022737458 10-22 18:35 W 45TH ST AND MONCRIEF RD 6388 DISPUTE WITH ASSAULT
141022737451 10-22 18:33 FIAT LN AND FALCON ST 56 JUVENILE COMPLAINT
141022737475 10-22 18:33 7000 CHRISTOPHER ROBIN DR 1066 CANCEL
141022737467 10-22 18:31 3100 COLLEGE ST 21R BURGLARY RESIDENCE
141022737411 10-22 18:30 1000 MEADOW POINT CT 21R BURGLARY RESIDENCE
141022737439 10-22 18:30 4800 E DEER LAKE DR 2 22 DOMESTIC DISTURBANCE
141022737477 10-22 18:30 5800 HILLMAN DR 37 UNVERIFIED 911 CALL
141022737325 10-22 18:29 N GATE PKWY AND W DEER LAKE DR 4 AUTO CRASH
141022737395 10-22 18:28 CONFEDERATE POINT RD AND BLANDING BLVD 2 DRUNK PERSON
141022737470 10-22 18:27 5600 W CHIRPING WAY 63 DISPUTE
141022737466 10-22 18:27 100 N PEARL ST 76 ASSIST OTHER AGENCY
141022737396 10-22 18:25 4100 BELFORT RD 63 DISPUTE
141022737406 10-22 18:25 4900 FOXBORO RD 63 DISPUTE
141022737401 10-22 18:25 10300 ATLANTIC CIR 0 63 ARMED DISPUTE
141022737438 10-22 18:24 8TH AVE AND GRAND ST 13 SUSPICIOUS PERSON
141022737448 10-22 18:23 2100 INWOOD TER 13 SUSPICIOUS PERSON
141022737394 10-22 18:21 3200 HODGES BLVD 9T THEFT (TELESERVE)
141022737449 10-22 18:20 900 BRIDIER ST 60 SUICIDE OR ATTEMPT
141022737417 10-22 18:19 MACNAUGHTON DR AND WESTPORT RD 22 DOMESTIC DISTURBANCE
141022737443 10-22 18:19 14500 W DUVAL PL 32 BURGLAR ALARM - AUDIBLE
141022737421 10-22 18:18 3700 S DON QUIXOTE CIR 1066 CANCEL
141022737437 10-22 18:18 13700 BEACH BLVD 63 DISPUTE
141022737415 10-22 18:18 500 E BAY ST 86 LOST PROPERTY
141022737330 10-22 18:18 7700 BELFORT PKWY 63 DISPUTE
141022737367 10-22 18:16 RAMONA BLVD AND HAMILTON ST 63 DISPUTE
141022737425 10-22 18:16 ROOSEVELT BLVD AND S EDGEWOOD AVE 16 ROAD OBSTRUCTION
141022737358 10-22 18:16 11400 BEACH BLVD 79 OBSCENE OR THREATENING COMM
141022737311 10-22 18:14 10500 DEERWOOD PARK BLVD 63 DISPUTE
141022737423 10-22 18:12 4500 ST JOHNS AVE 3 HIT AND RUN CRASH
141022737434 10-22 18:12 8800 S OLD KINGS RD 63 DISPUTE
141022737418 10-22 18:11 SOUTHSIDE BLVD AND BAYMEADOWS RD 12 RECKLESS DRIVER
141022737427 10-22 18:11 7500 MELVIN RD 63 DISPUTE
141022737310 10-22 18:10 6900 MORSE AVE 63 DISPUTE
141022737355 10-22 18:10 2300 DOLPHIN AVE 21R BURGLARY RESIDENCE
141022737359 10-22 18:09 11700 N DEEP SPRINGS DR 1066 CANCEL
141022737426 10-22 18:08 5600 W UNIVERSITY BLVD 76 ASSIST OTHER AGENCY
141022737381 10-22 18:08 1100 KINGS RD 4 AUTO CRASH
141022737387 10-22 18:07 7000 S SOUTHPOINT PKWY 32 BURGLAR ALARM - AUDIBLE
141022737383 10-22 18:06 800 ALDERMAN RD 19 ANIMAL INVESTIGATION
141022737404 10-22 18:06 600 COMMERCE CENTER DR 32 BURGLAR ALARM - AUDIBLE
141022737407 10-22 18:06 5900 NORMANDY BLVD 3 HIT AND RUN CRASH
141022737306 10-22 18:05 1300 STIMSON ST 87 DAMAGED PROPERTY
141022737413 10-22 18:05 8100 POINT MEADOWS WAY 1066 CANCEL
141022737369 10-22 18:05 500 STOCKTON ST 4 AUTO CRASH
141022737392 10-22 18:02 N I295 EXPWY AND 103RD ST 13 SUSPICIOUS PERSON
141022737343 10-22 18:00 APRIL ST AND VALDURA AVE 80 PROSTITUTION (ONLY)
141022737399 10-22 17:59 2200 EVERGREEN AVE 32 BURGLAR ALARM - AUDIBLE
141022737397 10-22 17:58 800 CEDAR BAY RD 0 60 SUICIDE THREAT W/WEAPON
141022737376 10-22 17:57 2900 WICKWIRE ST 61 FIGHT
141022737384 10-22 17:56 S I295 EXPWY AND ALTA DR 16 ROAD OBSTRUCTION
141022737386 10-22 17:56 10200 HARWOOD DR 76 ASSIST OTHER AGENCY
141022737372 10-22 17:54 HARTLEY RD AND SAN JOSE BLVD 1 IMPAIRED/RECKLESS DRIVER
141022737380 10-22 17:54 5200 COLLINS RD 1066 CANCEL
141022737208 10-22 17:54 6900 MAYAPPLE RD 9T THEFT (TELESERVE)
141022737382 10-22 17:53 100 TALLULAH AVE 22 DOMESTIC DISTURBANCE
141022737366 10-22 17:53 1800 W 5TH ST 63 DISPUTE
141022737379 10-22 17:53 100 N DAMES POINT BRG 16 ROAD OBSTRUCTION
141022737316 10-22 17:53 7200 MERRILL RD 86 LOST PROPERTY
141022737360 10-22 17:52 7200 MERRILL RD 4 AUTO CRASH
141022737373 10-22 17:52 BAYMEADOWS RD AND HAMPTON LANDING DR 4 53 TRAFFIC CRASH PERSON INJURED
141022737196 10-22 17:51 18200 PENNSYLVANIA AVE 22 DOMESTIC DISTURBANCE
141022737374 10-22 17:51 3200 S ST JOHNS BLUFF RD 32X SILENT ALARM (ROBBERY PANIC OR AWARE)
141022737375 10-22 17:50 W CHURCH ST AND N JULIA ST 13 SUSPICIOUS PERSON
141022737362 10-22 17:49 6600 NORWOOD AVE 6388 DISPUTE WITH ASSAULT
141022737370 10-22 17:49 200 MOJAVE CT 10R AUTO THEFT RECOVERY
141022737361 10-22 17:49 13200 CITY SQUARE DR 5582 HOLDING ONE FOR SHOPLIFTING
141022737333 10-22 17:47 1500 N JEFFERSON ST 4 AUTO CRASH
141022737365 10-22 17:46 W 12TH ST AND N LANE AVE 4 53 TRAFFIC CRASH PERSON INJURED
141022737354 10-22 17:46 N I95 EXPWY AND MAX LEGGETT PKWY 12 RECKLESS DRIVER
141022737317 10-22 17:46 12600 N ASHMORE GREEN DR 32 BURGLAR ALARM - AUDIBLE
141022737279 10-22 17:44 1100 FOUNTAIN RD 63 DISPUTE
141022737207 10-22 17:44 8700 NEWTON RD 63 DISPUTE
141022737328 10-22 17:44 6000 HOLLY BAY DR 63 DISPUTE
141022737357 10-22 17:43 3900 OLDFIELD CROSSING DR 63 DISPUTE
141022737352 10-22 17:42 12600 BLUE LAGOON TRL 3 53 HIT AND RUN CRASH W/FIRE
141022737350 10-22 17:41 10800 STEEDING HORSE DR 13 SUSPICIOUS PERSON
141022737345 10-22 17:39 WILSON BLVD AND S I295 EXPWY 96 ASSIST MOTORIST
141022737335 10-22 17:39 10000 ATLANTIC BLVD 2 63 DISPUTE INVOLVING ALCOHOL
141022737344 10-22 17:38 100 N BUCKMAN BRG 12 RECKLESS DRIVER
141022737319 10-22 17:37 3700 WINTON DR 61 FIGHT
141022737339 10-22 17:37 BEACH BLVD AND S SAN PABLO RD 12 RECKLESS DRIVER
141022737338 10-22 17:36 10600 MONACO DR 88P ASSAULT IN PROGRESS
141022737303 10-22 17:36 1400 W 6TH ST 63 DISPUTE
141022737332 10-22 17:36 200 W 7TH ST 32 BURGLAR ALARM - AUDIBLE
141022737322 10-22 17:35 5500 PLAYA WAY 63 DISPUTE
141022737292 10-22 17:35 7700 BELFORT PKWY 63 DISPUTE
141022737280 10-22 17:34 ROOSEVELT BLVD AND S EDGEWOOD AVE 13 SUSPICIOUS PERSON
141022737329 10-22 17:33 1400 DUNN AVE 63 DISPUTE
141022737220 10-22 17:33 1200 INGLESIDE AVE 21R BURGLARY RESIDENCE
141022737327 10-22 17:32 HOGAN RD AND SOUTHSIDE BLVD 4 53 TRAFFIC CRASH PERSON INJURED
141022737284 10-22 17:32 7100 CIVIC CLUB DR 88 ASSAULT
141022737285 10-22 17:31 100 W 6TH ST 22 DOMESTIC DISTURBANCE
141022737273 10-22 17:31 10900 LEM TURNER RD 63 DISPUTE
141022737324 10-22 17:30 MERRILL RD AND UNIVERSITY BLVD 0 13 ARMED SUSPICIOUS PERSON
141022737274 10-22 17:29 3900 DISTANT MOON CT 32 BURGLAR ALARM - AUDIBLE
141022737320 10-22 17:28 EMERSON ST AND N I95 EXPWY 4 AUTO CRASH
141022737314 10-22 17:25 100 S BUCKMAN BRG 16 ROAD OBSTRUCTION
141022737313 10-22 17:25 7500 COVEWOOD DR 60 SUICIDE OR ATTEMPT
141022737281 10-22 17:25 W BEAVER ST AND S EDGEWOOD AVE 4 AUTO CRASH
141022737305 10-22 17:22 N I295 EXPWY AND BLANDING BLVD 12 RECKLESS DRIVER
141022737308 10-22 17:22 2800 PALMDALE ST 2288 DOMESTIC DISPUTE WITH/ASSAULT
141022737269 10-22 17:22 7000 N MAIN ST 73 DRUG INVESTIGATION
141022737291 10-22 17:21 7500 GROSSMAN CT 63 DISPUTE
141022737278 10-22 17:20 2300 E COVINGTON CREEK CIR 68T CON GAME/FLIM FLAM TELESERVE
141022737199 10-22 17:20 600 N NEWNAN ST 79T OBSCENE OR THREATENING COMM TELESERVE
141022737299 10-22 17:18 10300 BEACH BLVD 63 DISPUTE
141022737298 10-22 17:17 10900 SAN JOSE BLVD 4 AUTO CRASH
141022737294 10-22 17:15 EMERSON ST AND HENDRICKS AVE 4 53 TRAFFIC CRASH PERSON INJURED
141022737252 10-22 17:15 PARK ST AND W BAY ST 63 DISPUTE
141022737289 10-22 17:13 1900 KINGS RD 76 ASSIST OTHER AGENCY
141022737288 10-22 17:12 2100 SUNRISE DR 22 DOMESTIC DISTURBANCE
141022737243 10-22 17:12 4600 YACHT CLUB RD 63 DISPUTE
141022737287 10-22 17:12 CLEVELAND RD AND W 45TH ST 54 ILLEGALLY PARKED CAR
141022737286 10-22 17:12 LEM TURNER RD AND CLYDE ST 4 AUTO CRASH
141022737277 10-22 17:11 400 E BAY ST 63 DISPUTE
141022737158 10-22 17:10 8800 PERIMETER PARK BLVD 73 DRUG INVESTIGATION
141022737234 10-22 17:09 3500 W RAIN FOREST DR 50 FOUND/ABANDONED PROPERTY
141022737275 10-22 17:08 9200 HATIAN WAY 5388 ASSAULT INVOLVING INJURY
141022737231 10-22 17:06 100 CENTURY 21 DR 95T FRAUD/FORGED PRESCRIPTION (TELESERVE)
141022737165 10-22 17:06 1000 BERT RD 63 DISPUTE
141022737189 10-22 17:06 9700 S WATERSHED DR 21CT BURGLARY CONVEYANCE TELESERVE
141022737227 10-22 17:06 9500 ARLINGTON EXPWY 5582 HOLDING ONE FOR SHOPLIFTING
141022737246 10-22 17:05 7800 AUSTIN RD 19 ANIMAL INVESTIGATION
141022737259 10-22 17:04 800 DUNN AVE 63 DISPUTE
141022737258 10-22 17:04 S OLD MIDDLEBURG RD AND MAYNARD PL 1066 CANCEL
141022737232 10-22 17:04 103RD ST AND N I295 EXPWY 63 DISPUTE
141022737251 10-22 17:03 10000 ALLENE RD 32 BURGLAR ALARM - AUDIBLE
141022737256 10-22 17:03 103RD ST AND FIRESTONE RD 4 AUTO CRASH
141022737266 10-22 17:02 BEACH BLVD AND PEACH DR 16 ROAD OBSTRUCTION
141022737195 10-22 17:02 2900 BEACHWOOD BLVD 63 DISPUTE
141022737265 10-22 17:01 2300 JERNIGAN RD 96 ASSIST MOTORIST
141022737263 10-22 17:01 14000 AQUADUCT CT 1066 CANCEL
141022737147 10-22 16:59 12700 WOODLAND DR 63 DISPUTE
141022737204 10-22 16:59 9300 ORME RD 63 DISPUTE
141022737151 10-22 16:58 4400 ROOSEVELT BLVD 50 FOUND/ABANDONED PROPERTY
141022737216 10-22 16:58 7400 POWERS AVE 0 23I ARMED ROBBERY INDIVIDUAL
141022737219 10-22 16:58 PATTERSON AVE AND SPICER ST 63 DISPUTE
141022737236 10-22 16:57 2500 WYLENE ST 6388 DISPUTE WITH ASSAULT
141022737253 10-22 16:57 S I95 EXPWY 96 ASSIST MOTORIST
141022737226 10-22 16:55 9000 SOUTHSIDE BLVD 27 MENTALLY ILL PERSON
141022737237 10-22 16:53 4600 SUNBEAM RD 37 UNVERIFIED 911 CALL
141022737225 10-22 16:52 400 MONUMENT RD 1066 CANCEL
141022737205 10-22 16:51 8400 E CHASON RD 32 BURGLAR ALARM - AUDIBLE
141022737134 10-22 16:51 10400 MINGLEWOOD DR 21R BURGLARY RESIDENCE
141022737230 10-22 16:50 3900 OLD SUNBEAM RD 76 ASSIST OTHER AGENCY
141022737149 10-22 16:47 3000 PHYLLIS ST 64 NOISE COMPLAINT
141022737218 10-22 16:46 10500 BAYMEADOWS RD 27 MENTALLY ILL PERSON
141022737190 10-22 16:45 1900 S LEONARD CIR 56 JUVENILE COMPLAINT
141022737217 10-22 16:45 MONUMENT RD AND TREDINICK PKWY 4 AUTO CRASH
141022737186 10-22 16:44 1700 PERRY ST 73 DRUG INVESTIGATION
141022737211 10-22 16:44 HODGES BLVD AND J TURNER BUTLER BLVD 4 AUTO CRASH
141022737206 10-22 16:44 100 W UNION ST 63 DISPUTE
141022737209 10-22 16:44 3900 SHASTA DR 76 ASSIST OTHER AGENCY
141022737126 10-22 16:43 BERTHA ST AND KINGS AVE 27 MENTALLY ILL PERSON
141022737203 10-22 16:42 10200 MAYAN DR 0 63 ARMED DISPUTE
141022737131 10-22 16:41 1200 BROOKWOOD FOREST BLVD 13 SUSPICIOUS PERSON
141022737187 10-22 16:39 11700 N WATTLE TREE RD 76 ASSIST OTHER AGENCY
141022737188 10-22 16:39 N EDGEWOOD AVE AND OLD KINGS RD 0 88J ARMED ASSAULT JUST OCCURRED
141022737184 10-22 16:36 6900 DUNN AVE 63 DISPUTE
141022737167 10-22 16:33 1000 CARRIE ST 37 UNVERIFIED 911 CALL
141022737153 10-22 16:32 10400 DEERWOOD PARK BLVD 9 THEFT
141022737123 10-22 16:31 7600 FREE AVE 63 DISPUTE
141022737173 10-22 16:31 DUNN AVE AND NEW KINGS RD 12 RECKLESS DRIVER
141022737146 10-22 16:30 4500 COLLEGE ST 79T OBSCENE OR THREATENING COMM TELESERVE
141022737156 10-22 16:30 8800 SOUTHSIDE BLVD 4 AUTO CRASH
141022737091 10-22 16:30 3800 S UNIVERSITY BLVD 95IDT IDENTITY THEFT TELESERVE
141022737142 10-22 16:28 3900 SUDBURY AVE 56 JUVENILE COMPLAINT
141022737143 10-22 16:28 13900 BEACH BLVD 4 AUTO CRASH
141022737159 10-22 16:26 ARGYLE FOREST BLVD AND WESTPORT RD 12 RECKLESS DRIVER
141022737107 10-22 16:25 1300 LAKEWOOD RD 32 BURGLAR ALARM - AUDIBLE
141022737113 10-22 16:24 6100 MERRILL RD 63 DISPUTE
141022737150 10-22 16:24 5300 JAMMES RD 0 63 ARMED DISPUTE
141022737139 10-22 16:24 N I95 EXPWY AND BAYMEADOWS RD 4 AUTO CRASH
141022737148 10-22 16:23 6100 N GAZEBO PARK PL 95IDT IDENTITY THEFT TELESERVE
141022737009 10-22 16:23 7900 FOLEY CT 21CT BURGLARY CONVEYANCE TELESERVE
141022737128 10-22 16:22 TALLULAH AVE AND BARBERIE ST 13 SUSPICIOUS PERSON
141022737105 10-22 16:21 2500 MAYPORT RD 63 DISPUTE
141022737007 10-22 16:21 3800 WHITEHALL ST 4 AUTO CRASH
141022737089 10-22 16:20 10600 ATLANTIC BLVD 9T THEFT (TELESERVE)
141022737115 10-22 16:20 5600 BUFFALO AVE 32 BURGLAR ALARM - AUDIBLE
141022737083 10-22 16:20 7700 HARE AVE 21RT BURGLARY RESIDENCE TELELSERVE
141022737095 10-22 16:19 1100 WOODRUFF AVE 63 DISPUTE
141022737117 10-22 16:19 12800 VICKERS LAKE CT 9T THEFT (TELESERVE)
141022737133 10-22 16:19 2200 E LUANA DR 79T OBSCENE OR THREATENING COMM TELESERVE
141022737137 10-22 16:18 1700 KINGS RD 63 DISPUTE
141022737136 10-22 16:18 5300 JAMMES RD 33 DISCHARGING OF FIREARM
141022737127 10-22 16:17 KINGS RD AND EAVERSON ST 3 HIT AND RUN CRASH
141022737125 10-22 16:16 3700 FRANKLIN ST 56 JUVENILE COMPLAINT
141022736934 10-22 16:15 10600 INDIGO HILLS LN 22 DOMESTIC DISTURBANCE
141022737103 10-22 16:15 1700 LEON RD 63 DISPUTE
141022737118 10-22 16:14 S SAN PABLO RD AND BEACH BLVD 4 53 TRAFFIC CRASH PERSON INJURED
141022737096 10-22 16:13 6000 FT CAROLINE RD 13 SUSPICIOUS PERSON
141022737085 10-22 16:12 N I295 EXPWY AND MERRILL RD 98 THROWING MISSILES
141022737073 10-22 16:12 5300 N LAMAR DR 21R BURGLARY RESIDENCE
141022737081 10-22 16:10 1100 LASALLE ST 63 DISPUTE
141022737100 10-22 16:08 HODGES BLVD AND BEACH BLVD 4 53 TRAFFIC CRASH PERSON INJURED
141022737005 10-22 16:07 5200 NORWOOD AVE 63 DISPUTE
141022737097 10-22 16:07 7000 COMMONWEALTH AVE 4 AUTO CRASH
141022737092 10-22 16:07 8000 ATLANTIC BLVD 9 THEFT
141022737041 10-22 16:06 1100 EVENING STROLL LN 32 BURGLAR ALARM - AUDIBLE
141022737082 10-22 16:05 1800 E 23RD ST 21CJ BURGLARY CONVEYANCE JUST OCCURRED
141022737078 10-22 16:03 11000 READING RD 76 ASSIST OTHER AGENCY
141022737075 10-22 16:01 COLLINS RD AND ROOSEVELT BLVD 13 SUSPICIOUS PERSON
141022737069 10-22 16:01 900 DUNN AVE 3 HIT AND RUN CRASH
141022737063 10-22 16:01 800 S LANE AVE 5582 HOLDING ONE FOR SHOPLIFTING